Location: Friedrichstal
(48.4845°N, 8.3761°E)
Time: 03:10:21
(UTC+00:00)

Daily predictions for brighter satellites

Satellite Brightness Start Highest point End
(mag) Time Altitude Azimuth Time Altitude Azimuth Time Altitude Azimuth
ADEOS II 4.5 00:02:01 10° ENE 00:03:53 12° E 00:05:45 10° ESE
Cosmos 1553 Rocket 4.1 00:03:21 33° SSW 00:06:08 66° WNW 00:12:20 10° N
NOSS 2-2 (D) 4.2 00:01:20 10° NW 00:06:18 82° SW 00:11:37 18° SE
Cosmos 1461 3.5 00:02:40 10° NW 00:06:31 39° WSW 00:06:31 39° WSW
Gblst 52 Del rocket 4.4 00:01:10 10° W 00:07:20 74° NNW 00:12:56 10° ENE
Cosmos 1867 3.6 00:05:01 33° SW 00:07:34 82° NW 00:13:05 10° NE
Cosmos 1674 Rocket 3.5 00:06:55 49° SSW 00:08:00 76° W 00:12:21 10° N
Cosmos 2221 Rocket 4.0 00:06:47 39° SW 00:08:01 53° WNW 00:12:21 10° N
Cosmos 2298 Rocket 4.1 00:07:41 39° S 00:09:36 71° ESE 00:14:54 10° NNE
Cosmos 1674 3.4 00:10:51 37° WSW 00:11:29 40° WNW 00:15:04 10° N
USA 306 3.2 00:11:52 43° SE 00:11:57 43° SE 00:15:56 10° ENE
Cosmos 1238 Rocket 3.3 00:09:47 10° NNW 00:12:06 33° WNW 00:12:06 33° WNW
Thor Agena Rocket 4.3 00:08:12 10° NNE 00:13:17 45° E 00:15:34 29° SSE
ATLAS CENTAUR R/B 3.3 00:10:58 10° WNW 00:13:59 19° WSW 00:13:59 19° WSW
USA 307 3.4 00:15:20 40° SE 00:15:25 40° SE 00:19:22 10° ENE
SL-16 R/B 3.9 00:16:08 15° SE 00:18:51 22° E 00:23:04 10° NE
ERBS 3.6 00:22:52 26° ESE 00:22:52 26° ESE 00:24:46 10° ENE
ATLAS 5 CENTAUR R/B 3.0 00:11:00 10° NW 00:22:58 54° WSW 00:24:40 36° S
Cosmos 1980 3.8 00:20:38 35° S 00:22:58 67° ESE 00:28:36 10° NNE
CZ-4C R/B 3.3 00:16:31 10° NW 00:23:32 49° WSW 00:27:52 27° S
Cosmos 1378 Rocket 3.9 00:22:19 39° SW 00:23:38 55° WNW 00:28:01 10° N
Cosmos 1455 Rocket 3.8 00:19:27 10° N 00:23:47 48° ENE 00:26:09 24° SE
Cosmos 2333 Rocket 3.5 00:19:42 14° WSW 00:23:55 34° NW 00:29:05 10° NNE
USA 215 3.9 00:19:43 10° NE 00:26:05 56° NNW 00:32:26 10° W
Cosmos 332 Rocket 4.2 00:28:23 34° SSE 00:30:07 51° ESE 00:34:46 10° NNE
NOSS 0 Rocket 3.9 00:29:23 31° SSW 00:32:35 87° WNW 00:38:53 10° NNE
USA 32 4.0 00:35:15 35° S 00:37:34 84° W 00:42:52 10° N
Meteor 2-10 Rocket 3.6 00:32:31 10° NNW 00:38:15 90° W 00:41:17 28° S
Cosmos 1975 Rocket 3.4 00:39:39 33° SSE 00:41:28 60° E 00:45:53 10° NNE
Cosmos 1745 Rocket 4.5 00:35:53 10° NNW 00:41:47 46° W 00:44:35 28° SW
Cosmos 839 Rocket 4.3 00:37:37 10° NW 00:43:52 59° WSW 00:49:12 19° SSE
ADEOS Rocket 4.4 00:42:18 16° WSW 00:44:11 19° W 00:48:13 10° NW
USA 308 2.8 00:44:46 43° SSW 00:45:56 64° SE 00:50:05 10° ENE
Cosmos 2219 Rocket 3.6 00:42:56 12° WSW 00:47:14 30° NW 00:52:09 10° NNE
Cosmos 1025 Rocket 3.4 00:47:03 30° SSE 00:48:56 57° E 00:53:10 10° NNE
Cosmos 1455 3.7 00:46:32 10° N 00:49:52 31° ENE 00:52:38 13° SE
Cosmos 1269 Rocket 4.1 00:45:23 10° NNW 00:50:41 75° ENE 00:55:07 15° SSE
GP-B 3.2 00:51:58 10° N 00:56:22 62° W 00:58:07 34° SSW
Meteor 2-5 Rocket 3.9 00:55:38 25° S 00:59:03 71° E 01:04:43 10° NNE
CZ-2D R/B 2.5 00:53:56 10° NNE 00:59:16 59° ESE 01:02:28 23° S
Lacrosse 5 2.6 00:58:31 28° S 01:00:29 40° SE 01:05:14 10° ENE
Cosmos 1300 3.4 00:57:13 10° NNW 01:00:43 37° W 01:01:27 33° WSW
USA 267 4.2 01:02:14 23° SW 01:03:07 24° SW 01:08:16 10° WNW
SL-14 R/B 4.4 01:02:27 26° WSW 01:03:40 31° WNW 01:07:09 10° N
Cosmos 371 Rocket 4.1 01:06:03 23° WSW 01:08:39 42° WNW 01:13:17 10° NNE
USA 305 2.8 01:07:08 26° WSW 01:09:23 83° NNW 01:13:35 10° ENE
Cosmos 1544 Rocket 3.7 01:05:45 10° N 01:10:12 75° E 01:13:09 20° SSE
USA 229 DEB 4.5 01:04:01 10° NW 01:10:43 37° WSW 01:15:06 21° SSW
USA 229 4.5 01:04:07 10° NW 01:10:49 38° WSW 01:15:15 21° SSW
BREEZE-M DEB (TANK) 4.3 00:56:51 10° WSW 01:12:36 84° SSE 01:16:46 10° ENE
Cosmos 2237 Rocket 2.6 01:11:28 23° SW 01:14:59 57° WNW 01:20:38 10° NNE
COSMOS 2428 4.3 01:12:17 10° WSW 01:17:03 27° NW 01:21:50 10° NNE
AQUA 4.3 01:13:54 10° NNE 01:18:36 55° E 01:21:49 20° S
Cosmos 304 Rocket 4.3 01:17:17 24° SW 01:19:55 51° WNW 01:24:38 10° NNE
SL-16 R/B 2.5 01:14:42 13° SSE 01:20:18 85° WSW 01:26:36 10° NNW
Helios 1A 3.9 01:17:20 10° SE 01:21:23 49° ENE 01:25:29 10° N
SAR-Lupe-2 4.1 01:18:42 10° NNE 01:22:13 51° E 01:24:09 23° SSE
Lacrosse 5 rocket 2.3 01:21:54 25° S 01:23:18 32° SE 01:26:57 10° ENE
Cosmos 1953 4.4 01:23:33 10° NW 01:25:39 14° W 01:26:26 13° W
SME Rocket 3.8 01:24:35 27° SW 01:26:10 38° W 01:30:51 10° NNW
Cosmos 2074 Rocket 4.0 01:22:05 10° N 01:28:24 83° W 01:33:59 14° S
Resurs 1-4 Rocket 2.1 01:23:11 10° NNE 01:28:28 80° WNW 01:31:56 22° SSW
Cosmos 2297 3.7 01:27:31 10° NNW 01:33:18 83° WSW 01:39:02 10° SSE
Cosmos 1943 Rocket 2.2 01:27:39 10° NNW 01:33:18 67° WSW 01:38:54 10° SSE
Cosmos 1703 4.3 01:35:52 13° SSE 01:39:08 41° E 01:42:50 10° NNE
CRYOSAT 2 4.3 01:38:47 16° S 01:42:43 81° W 01:47:38 10° N
Cosmos 2184 Rocket 4.0 01:37:02 10° NNW 01:43:16 68° W 01:48:45 13° S
Cosmos 2278 Rocket 3.7 01:40:17 10° WNW 01:43:49 17° W 01:45:23 15° WSW
ADEOS II 2.2 01:39:08 10° NNE 01:44:25 79° ESE 01:48:40 16° S
IDEFIX/ARIANE 42P 2.8 01:40:03 10° NNE 01:45:20 68° ESE 01:49:52 14° S
Cosmos 1610 Rocket 4.5 01:40:54 10° N 01:47:06 88° E 01:53:14 10° S
USA 306 3.4 01:47:34 11° W 01:51:30 55° NNW 01:55:37 10° ENE
Cosmos 2084 Rocket 3.5 01:49:15 20° WSW 01:51:46 58° NW 01:55:31 10° NE
Cosmos 292 Rocket 4.1 01:48:10 16° S 01:51:56 61° ESE 01:56:41 10° NNE
USA 307 3.4 01:51:04 11° W 01:54:57 58° NNW 01:59:07 10° ENE
NPP 3.9 01:51:08 10° N 01:56:26 58° WNW 02:00:36 16° SW
ERBS 3.3 01:54:54 13° W 01:57:18 37° NNW 02:00:12 10° NE
Cosmos 2369 Rocket 2.3 01:52:58 10° NNW 01:58:37 81° ENE 02:04:12 10° SSE
USA-17 4.5 01:56:35 10° NW 01:59:53 73° SW 02:04:09 10° SSE
Cosmos 2228 3.1 01:57:46 10° N 02:02:11 83° E 02:06:31 10° S
Cosmos 614 Rocket 4.0 01:57:03 10° NNW 02:02:11 62° WSW 02:07:19 10° S
IRS-1D 4.1 01:57:01 10° NNE 02:02:18 58° E 02:07:30 10° S
SL-16 R/B 2.3 01:58:00 17° SW 02:02:26 68° WNW 02:08:07 10° NNE
EO 1 Del DPAF 2.9 01:59:06 10° NNE 02:02:38 84° WNW 02:05:16 17° SSW
Cosmos 2251 Rocket 3.6 01:58:56 10° NNW 02:04:13 87° ENE 02:09:31 10° SSE
Meteor 1-28 Rocket 3.5 02:03:37 15° S 02:06:32 48° W 02:10:10 10° NNW
Cosmos 1656 Rocket 3.8 02:02:34 10° NNW 02:08:01 77° ENE 02:13:26 10° SSE
USA 215 4.5 02:02:23 10° ENE 02:08:28 42° N 02:14:32 10° WNW
COSMOS 2455 2.9 02:04:48 15° SSW 02:09:57 78° ESE 02:16:00 10° NE
Cosmos 1536 Rocket 3.8 02:08:02 15° SSW 02:11:30 57° WNW 02:15:52 10° N
COSMOS 2441 4.5 02:12:45 10° NNE 02:17:40 80° ESE 02:22:30 10° SSW
Nadezhda 1 Rocket 4.2 02:15:05 12° SSW 02:21:01 61° WNW 02:27:16 10° N
MSX 3.9 02:16:35 10° NNE 02:22:23 82° WNW 02:28:09 10° SSW
Cosmos 1455 3.7 02:22:23 10° NW 02:25:10 20° W 02:27:23 13° SW
USA 308 3.8 02:21:40 10° W 02:25:43 46° NNW 02:29:47 10° ENE
Cosmos 1603 4.4 02:20:35 10° S 02:25:59 50° ESE 02:31:28 10° NE
MOS 1 Rocket 4.2 02:23:23 13° SSW 02:26:25 26° W 02:30:04 10° NW
Cosmos 1271 Rocket 3.5 02:25:42 10° NNW 02:29:09 33° W 02:32:38 10° SSW
Cosmos 1606 Rocket 3.5 02:28:56 10° NNW 02:33:21 71° W 02:37:42 10° S
ALOS 3.5 02:32:17 10° NNE 02:36:42 40° E 02:41:04 10° SSE
CZ-2C R/B 3.6 02:33:57 10° NNE 02:38:51 43° E 02:43:36 10° S
CZ-2D R/B 3.6 02:34:38 10° N 02:38:54 25° WNW 02:43:09 10° WSW
Lacrosse 5 2.4 02:38:19 10° WSW 02:43:22 58° NNW 02:48:25 10° NE
Helios 1B rocket 2.6 02:39:31 10° NNE 02:43:36 72° ESE 02:47:38 10° S
Cosmos 2366 rocket 4.1 02:39:23 10° N 02:45:35 89° E 02:51:47 10° S
Cosmos 2341 Rocket 4.1 02:39:45 10° NNW 02:46:05 66° W 02:52:24 10° S
USA 305 4.1 02:45:23 10° WNW 02:49:20 39° N 02:53:17 10° ENE
Meteor 2-1 Rocket 4.4 02:45:01 10° NNW 02:50:40 58° W 02:56:11 10° S
BREEZE-M DEB (TANK) 3.3 02:47:48 10° SW 02:51:49 33° SSE 02:53:58 10° E
Cosmos 407 Rocket 3.5 02:46:51 10° NNW 02:52:09 67° WSW 02:57:21 10° S
SL-8 Rocket 4.1 02:46:32 10° NNW 02:52:50 70° W 02:59:06 10° S
Cosmos 1943 3.3 02:51:41 10° SSW 02:57:24 88° WNW 03:03:08 10° NNE
